DB0RV-13 Weather Reports


Display with metric or nautical units.
time (UTC)temp
F
wind
direction
speed
MPH
gust
MPH
rain 1hr
in
rain 24hr
in
rain mn
in
humidity
%
barometer
mb
20260507011002 47 280 9.0 0.0 0.00 0.00 0.00 86 1010.6
20260507010501 46 262 2.0 0.0 0.00 0.00 0.00 88 1010.6
20260507010001 46 261 2.0 0.0 0.00 0.00 0.00 88 1010.6
20260507005502 46 243 6.0 0.0 0.00 0.00 0.00 88 1010.7
20260507005001 46 240 4.0 0.0 0.00 0.00 0.00 87 1010.6
20260507004501 46 235 6.0 0.0 0.00 0.00 0.00 88 1010.4
20260507004002 46 237 7.0 0.0 0.00 0.00 0.00 89 1010.4
20260507003501 46 261 4.0 0.0 0.00 0.00 0.00 92 1010.3
20260507003001 45 252 5.0 0.0 0.00 0.00 0.00 92 1010.3
20260507002502 45 244 7.0 0.0 0.00 0.00 0.00 92 1010.3
20260507002001 44 230 5.0 0.0 0.00 0.00 0.00 92 1010.5
20260507001501 44 229 3.0 0.0 0.00 0.00 0.00 92 1010.4
20260507001002 44 238 4.0 0.0 0.00 0.00 0.00 92 1010.4
20260507000501 44 235 2.0 0.0 0.00 0.00 0.00 92 1010.3
20260507000002 44 248 4.0 0.0 0.00 0.00 0.00 92 1010.5
20260506235502 44 235 3.0 0.0 0.00 0.00 0.00 92 1010.4
20260506235001 45 242 3.0 0.0 0.00 0.00 0.00 91 1010.4
20260506234502 45 251 2.0 0.0 0.00 0.00 0.00 91 1010.4
20260506234002 45 244 3.0 0.0 0.00 0.00 0.00 92 1010.4
20260506233501 45 242 2.0 0.0 0.00 0.00 0.00 92 1010.4
20260506233001 45 221 2.0 0.0 0.00 0.00 0.00 92 1010.4
20260506232502 45 217 3.0 0.0 0.00 0.00 0.00 92 1010.4
20260506232001 45 239 2.0 0.0 0.00 0.00 0.00 92 1010.3
20260506231504 45 239 2.0 0.0 0.00 0.00 0.00 92 1010.3
20260506231002 45 240 2.0 0.0 0.00 0.00 0.00 92 1010.2
20260506230501 45 236 4.0 0.0 0.00 0.00 0.00 93 1010.2
20260506230002 44 233 4.0 0.0 0.00 0.00 0.00 93 1010.3
20260506225502 44 250 3.0 0.0 0.00 0.00 0.00 93 1010.3
20260506225001 45 242 5.0 0.0 0.00 0.00 0.00 93 1010.2
20260506224501 45 227 5.0 0.0 0.00 0.00 0.00 93 1010.2
20260506224002 45 230 6.0 0.0 0.00 0.00 0.00 93 1010.1
20260506223501 45 228 4.0 0.0 0.00 0.00 0.00 93 1010.1
20260506223002 45 236 4.0 0.0 0.00 0.00 0.00 92 1010.3
20260506222503 44 213 5.0 0.0 0.00 0.00 0.00 92 1010.1
20260506222001 44 239 6.0 0.0 0.00 0.00 0.00 92 1010.1
20260506221502 44 240 5.0 0.0 0.00 0.00 0.00 92 1010.1
20260506221002 44 243 4.0 0.0 0.00 0.00 0.00 92 1010.1
20260506220501 45 237 4.0 0.0 0.00 0.00 0.00 91 1010.1
20260506220001 45 206 6.0 0.0 0.00 0.00 0.00 91 1010.0
20260506215503 45 212 4.0 0.0 0.00 0.00 0.00 90 1010.0
20260506215001 45 217 4.0 0.0 0.00 0.00 0.00 90 1010.0
20260506214501 45 208 4.0 0.0 0.00 0.00 0.00 89 1010.0
20260506214002 45 225 5.0 0.0 0.00 0.00 0.00 88 1010.1
20260506213501 46 241 6.0 0.0 0.00 0.00 0.00 88 1010.0
20260506213002 46 252 6.0 0.0 0.00 0.00 0.00 87 1010.0
20260506212502 46 247 5.0 0.0 0.00 0.00 0.00 87 1010.0
20260506212001 46 246 6.0 0.0 0.00 0.00 0.00 87 1010.0
20260506211501 46 248 6.0 0.0 0.00 0.00 0.00 87 1010.1
20260506211002 47 248 5.0 0.0 0.00 0.00 0.00 87 1010.0
20260506210501 46 242 6.0 0.0 0.00 0.00 0.00 88 1010.0
20260506210002 46 248 5.0 0.0 0.00 0.00 0.00 89 1009.9
20260506205502 46 248 4.0 0.0 0.00 0.00 0.00 89 1009.8
20260506205002 46 247 6.0 0.0 0.00 0.00 0.00 89 1009.7
20260506204501 46 241 2.0 0.0 0.00 0.00 0.00 89 1009.8
20260506204002 46 250 4.0 0.0 0.00 0.00 0.00 90 1009.8
20260506203501 46 248 3.0 0.0 0.00 0.00 0.00 89 1009.8
20260506203001 46 240 4.0 0.0 0.00 0.00 0.00 89 1009.8
20260506202503 46 246 4.0 0.0 0.00 0.00 0.00 90 1009.8
20260506202002 46 246 3.0 0.0 0.00 0.00 0.00 90 1009.8
20260506201501 46 236 3.0 0.0 0.00 0.00 0.00 89 1009.8
20260506201003 46 224 3.0 0.0 0.00 0.00 0.00 89 1009.9
20260506200501 46 218 4.0 0.0 0.00 0.00 0.00 89 1009.7
20260506200001 46 220 2.0 0.0 0.00 0.00 0.00 89 1009.6
20260506195502 46 239 4.0 0.0 0.00 0.00 0.00 88 1009.5
20260506195001 47 216 4.0 0.0 0.00 0.00 0.00 87 1009.5
20260506194501 47 207 6.0 0.0 0.00 0.00 0.00 87 1009.4
20260506194003 47 214 4.0 0.0 0.00 0.00 0.00 87 1009.4
20260506193502 47 221 3.0 0.0 0.00 0.00 0.00 87 1009.5
20260506193002 47 204 4.0 0.0 0.00 0.00 0.00 87 1009.5
20260506192502 46 208 5.0 0.0 0.00 0.00 0.00 87 1009.4
20260506192005 46 239 4.0 0.0 0.00 0.00 0.00 87 1009.3
20260506191502 46 245 3.0 0.0 0.00 0.00 0.00 87 1009.2
20260506191002 47 238 4.0 0.0 0.00 0.00 0.00 86 1009.2
20260506190502 47 243 2.0 0.0 0.00 0.00 0.00 86 1009.1
20260506190002 47 239 4.0 0.0 0.00 0.00 0.00 85 1009.0
20260506185503 48 241 5.0 0.0 0.00 0.00 0.00 85 1009.0
20260506185001 48 224 4.0 0.0 0.00 0.00 0.00 86 1008.9
20260506184502 48 239 3.0 0.0 0.00 0.00 0.00 86 1008.8
20260506184002 48 238 2.0 0.0 0.00 0.00 0.00 86 1008.8
20260506183501 48 209 3.0 0.0 0.00 0.00 0.00 85 1008.8
20260506183002 48 252 2.0 0.0 0.00 0.00 0.00 85 1008.7
20260506182501 48 224 3.0 0.0 0.00 0.00 0.00 85 1008.7
20260506182002 49 256 3.0 0.0 0.00 0.00 0.00 85 1008.7
20260506181501 49 277 4.0 0.0 0.00 0.00 0.00 85 1008.7
20260506181002 49 228 2.0 0.0 0.00 0.00 0.00 85 1008.6
20260506180501 49 251 4.0 0.0 0.00 0.00 0.00 84 1008.6
20260506180002 49 260 3.0 0.0 0.00 0.00 0.00 84 1008.6
20260506175502 49 272 3.0 0.0 0.00 0.00 0.00 84 1008.5
20260506175002 49 242 4.0 0.0 0.00 0.00 0.00 84 1008.5
20260506174502 49 237 4.0 0.0 0.00 0.00 0.00 84 1008.4
20260506174001 49 241 4.0 0.0 0.00 0.00 0.00 84 1008.4
20260506173502 49 249 9.0 0.0 0.00 0.00 0.00 85 1008.4
20260506173004 49 242 2.0 0.0 0.00 0.00 0.00 86 1008.4
20260506172502 50 239 4.0 0.0 0.00 0.00 0.00 86 1008.3
20260506172002 50 246 5.0 0.0 0.00 0.00 0.00 86 1008.2
20260506171502 50 246 4.0 0.0 0.00 0.00 0.00 86 1008.1
20260506171001 49 245 5.0 0.0 0.00 0.00 0.00 88 1008.1
20260506170502 49 256 5.0 0.0 0.00 0.00 0.00 88 1008.0
20260506170001 49 270 6.0 0.0 0.00 0.00 0.00 88 1008.0
20260506165502 49 248 8.0 0.0 0.00 0.00 0.00 88 1008.0
20260506165002 49 276 5.0 0.0 0.00 0.00 0.00 88 1007.9
20260506164002 48 253 6.0 0.0 0.00 0.00 0.00 88 1008.0
20260506163503 48 245 6.0 0.0 0.00 0.00 0.00 88 1007.8
20260506163002 48 272 4.0 0.0 0.00 0.00 0.00 89 1007.8
20260506162501 48 271 2.0 0.0 0.00 0.00 0.00 88 1007.9
20260506162002 48 249 5.0 0.0 0.00 0.00 0.00 89 1007.9
20260506161501 48 251 8.0 0.0 0.00 0.00 0.00 89 1007.9
20260506161001 48 263 6.0 0.0 0.00 0.00 0.00 89 1007.9
20260506160501 48 251 10.0 0.0 0.00 0.00 0.00 90 1007.9
20260506160002 48 242 5.0 0.0 0.00 0.00 0.00 90 1007.8
20260506155502 48 269 5.0 0.0 0.00 0.00 0.00 90 1007.8
20260506155001 48 244 6.0 0.0 0.00 0.00 0.00 90 1007.8
20260506154502 48 244 4.0 0.0 0.00 0.00 0.00 91 1007.7
20260506154001 48 261 4.0 0.0 0.00 0.00 0.00 91 1007.7
20260506153502 48 251 4.0 0.0 0.00 0.00 0.00 92 1007.6
20260506153001 48 238 4.0 0.0 0.00 0.00 0.00 92 1007.5
20260506152501 47 282 6.0 0.0 0.00 0.00 0.00 92 1007.5
20260506152001 47 267 6.0 0.0 0.00 0.00 0.00 92 1007.4
20260506151501 46 272 6.0 0.0 0.00 0.00 0.00 92 1007.5
20260506151002 46 262 8.0 0.0 0.00 0.00 0.00 92 1007.3
20260506150501 46 268 8.0 0.0 0.00 0.00 0.00 91 1007.2
20260506150003 47 253 7.0 0.0 0.00 0.00 0.00 91 1007.5
20260506145502 47 258 14.0 0.0 0.00 0.00 0.00 91 1007.6
20260506145002 47 282 14.0 0.0 0.00 0.00 0.00 91 1007.6
20260506144501 47 242 14.0 0.0 0.00 0.00 0.00 91 1007.6
20260506144002 47 261 13.0 0.0 0.00 0.00 0.00 90 1007.4
20260506143501 48 269 9.0 0.0 0.00 0.00 0.00 90 1007.2
20260506143001 49 265 11.0 0.0 0.00 0.00 0.00 89 1006.9
20260506142502 49 269 12.0 0.0 0.00 0.00 0.00 88 1006.5
20260506142002 50 278 18.0 0.0 0.00 0.00 0.00 85 1006.5
20260506141502 50 270 9.0 0.0 0.00 0.00 0.00 81 1006.5
20260506141002 53 279 14.0 0.0 0.00 0.00 0.00 74 1006.2
20260506140502 57 240 13.0 0.0 0.00 0.00 0.00 71 1005.9
20260506140001 57 246 3.0 0.0 0.00 0.00 0.00 71 1005.8
20260506135501 58 243 3.0 0.0 0.00 0.00 0.00 71 1005.6
20260506135001 58 243 6.0 0.0 0.00 0.00 0.00 71 1005.5
20260506134502 59 244 5.0 0.0 0.00 0.00 0.00 70 1005.5
20260506134002 59 272 2.0 0.0 0.00 0.00 0.00 68 1005.5
20260506133502 59 282 0.0 0.0 0.00 0.00 0.00 70 1005.4
20260506133002 59 284 8.0 0.0 0.00 0.00 0.00 69 1005.5
20260506132501 58 243 2.0 0.0 0.00 0.00 0.00 70 1005.5
20260506132003 59 274 8.0 0.0 0.00 0.00 0.00 72 1005.4
20260506131502 59 256 5.0 0.0 0.00 0.00 0.00 70 1005.5
20260506131002 59 217 5.0 0.0 0.00 0.00 0.00 73 1005.4
20260506130501 58 218 3.0 0.0 0.00 0.00 0.00 74 1005.4
20260506130002 57 183 3.0 0.0 0.00 0.00 0.00 73 1005.3
20260506125502 57 213 4.0 0.0 0.00 0.00 0.00 73 1005.6
20260506125002 57 209 5.0 0.0 0.00 0.00 0.00 74 1005.7
20260506124502 57 222 5.0 0.0 0.00 0.00 0.00 73 1005.6
20260506124001 57 248 4.0 0.0 0.00 0.00 0.00 71 1005.7
20260506123502 58 257 4.0 0.0 0.00 0.00 0.00 69 1005.5
20260506123001 58 238 4.0 0.0 0.00 0.00 0.00 68 1005.6
20260506122502 58 226 4.0 0.0 0.00 0.00 0.00 66 1005.5
20260506122001 58 319 2.0 0.0 0.00 0.00 0.00 67 1005.4
20260506121502 58 238 2.0 0.0 0.00 0.00 0.00 69 1005.4
20260506121002 58 253 2.0 0.0 0.00 0.00 0.00 69 1005.3
20260506120502 57 230 1.0 0.0 0.00 0.00 0.00 67 1005.3
20260506120002 57 272 3.0 0.0 0.00 0.00 0.00 69 1005.2
20260506115501 58 278 3.0 0.0 0.00 0.00 0.00 69 1005.1
20260506115002 58 301 1.0 0.0 0.00 0.00 0.00 67 1005.1
20260506114501 57 307 2.0 0.0 0.00 0.00 0.00 68 1005.1
20260506114002 58 334 3.0 0.0 0.00 0.00 0.00 68 1005.1
20260506113502 58 350 1.0 0.0 0.00 0.00 0.00 67 1005.1
20260506113002 59 326 2.0 0.0 0.00 0.00 0.00 65 1005.3
20260506112501 58 356 0.0 0.0 0.00 0.00 0.00 66 1005.3
20260506112004 58 335 2.0 0.0 0.00 0.00 0.00 68 1005.3
20260506111501 57 356 0.0 0.0 0.00 0.00 0.00 66 1005.3
20260506111001 58 73 1.0 0.0 0.00 0.00 0.00 67 1005.4
20260506110502 58 29 1.0 0.0 0.00 0.00 0.00 66 1005.6
20260506110001 58 96 1.0 0.0 0.00 0.00 0.00 68 1005.6
20260506105502 58 354 2.0 0.0 0.00 0.00 0.00 69 1005.6
20260506105001 58 266 0.0 0.0 0.00 0.00 0.00 69 1005.6
20260506104502 58 0 0.0 0.0 0.00 0.00 0.00 70 1005.5
20260506104001 58 212 1.0 0.0 0.00 0.00 0.00 69 1005.7
20260506103503 57 347 2.0 0.0 0.00 0.00 0.00 70 1005.7
20260506103001 57 28 2.0 0.0 0.00 0.00 0.00 70 1005.7
20260506102502 58 333 4.0 0.0 0.00 0.00 0.00 69 1005.8
20260506102001 59 304 2.0 0.0 0.00 0.00 0.00 71 1005.8
20260506101501 57 50 3.0 0.0 0.00 0.00 0.00 70 1005.7
20260506101002 57 1 2.0 0.0 0.00 0.00 0.00 72 1005.8
20260506100502 57 266 1.0 0.0 0.00 0.00 0.00 73 1005.8
20260506100002 56 192 2.0 0.0 0.00 0.00 0.00 73 1006.0
20260506095501 56 268 3.0 0.0 0.00 0.00 0.00 71 1006.0
20260506095002 56 342 2.0 0.0 0.00 0.00 0.00 72 1005.9
20260506094501 56 171 1.0 0.0 0.00 0.00 0.00 75 1005.8
20260506094002 55 32 2.0 0.0 0.00 0.00 0.00 78 1005.7
20260506093501 54 41 4.0 0.0 0.00 0.00 0.00 79 1005.7
20260506093002 54 28 5.0 0.0 0.00 0.00 0.00 79 1005.6
20260506092502 55 30 4.0 0.0 0.00 0.00 0.00 79 1005.8
20260506092001 55 42 2.0 0.0 0.00 0.00 0.00 79 1005.9
20260506091502 55 135 1.0 0.0 0.00 0.00 0.00 80 1006.0
20260506091001 55 127 0.0 0.0 0.00 0.00 0.00 80 1006.1
20260506090502 55 147 1.0 0.0 0.00 0.00 0.00 79 1006.2
20260506090001 55 211 1.0 0.0 0.00 0.00 0.00 79 1006.2
20260506085501 55 128 1.0 0.0 0.00 0.00 0.00 79 1006.2
20260506085001 55 40 2.0 0.0 0.00 0.00 0.00 77 1006.0
20260506084502 55 343 1.0 0.0 0.00 0.00 0.00 77 1006.1
20260506084002 55 33 1.0 0.0 0.00 0.00 0.00 77 1006.1
20260506083502 55 57 1.0 0.0 0.00 0.00 0.00 78 1006.1
20260506083002 54 61 1.0 0.0 0.00 0.00 0.00 79 1006.0
20260506082501 54 0 0.0 0.0 0.00 0.00 0.00 81 1005.9
20260506082002 54 93 3.0 0.0 0.00 0.00 0.00 81 1005.9
20260506081501 54 120 4.0 0.0 0.00 0.00 0.00 80 1005.9
20260506081001 54 87 2.0 0.0 0.00 0.00 0.00 81 1005.8
20260506080501 54 103 4.0 0.0 0.00 0.00 0.00 82 1005.8
20260506073502 51 75 2.0 0.0 0.00 0.00 0.00 88 1006.0
20260506073001 51 69 2.0 0.0 0.00 0.00 0.00 89 1006.1
20260506072502 51 79 3.0 0.0 0.00 0.00 0.00 90 1006.1
20260506072001 50 60 3.0 0.0 0.00 0.00 0.00 91 1006.0
20260506071502 50 45 3.0 0.0 0.00 0.00 0.00 91 1006.0
20260506071002 50 43 4.0 0.0 0.00 0.00 0.00 91 1005.9
20260506070502 50 40 3.0 0.0 0.00 0.00 0.00 91 1006.0
20260506062502 49 179 2.0 0.0 0.00 0.00 0.00 94 1006.4
20260506062002 49 180 2.0 0.0 0.00 0.00 0.00 94 1006.2
20260506061502 49 99 0.0 0.0 0.00 0.00 0.00 95 1006.1
20260506061001 48 139 0.0 0.0 0.00 0.00 0.00 96 1006.3
20260506060502 48 60 2.0 0.0 0.00 0.00 0.00 95 1006.2
20260506051002 47 0 0.0 0.0 0.00 0.00 0.00 96 1006.2
20260506050501 47 40 1.0 0.0 0.00 0.00 0.00 96 1006.3
20260506045002 46 75 2.0 0.0 0.00 0.00 0.00 97 1006.4
20260506044501 47 312 1.0 0.0 0.00 0.00 0.00 97 1006.4
20260506044001 46 314 3.0 0.0 0.00 0.00 0.00 97 1006.3
20260506043502 45 320 2.0 0.0 0.00 0.00 0.00 97 1006.3
20260506043002 45 313 2.0 0.0 0.00 0.00 0.00 97 1006.5
20260506042502 46 321 2.0 0.0 0.00 0.00 0.00 96 1006.6
20260506042002 47 334 3.0 0.0 0.00 0.00 0.00 97 1006.7
20260506041502 47 154 0.0 0.0 0.00 0.00 0.00 97 1006.7
20260506041001 47 156 1.0 0.0 0.00 0.00 0.00 96 1006.8
20260506040502 47 153 2.0 0.0 0.00 0.00 0.00 95 1006.8
20260506040001 47 143 2.0 0.0 0.00 0.00 0.00 94 1006.8
20260506035501 47 148 1.0 0.0 0.00 0.00 0.00 93 1007.0
20260506035001 47 151 2.0 0.0 0.00 0.00 0.00 92 1006.9
20260506034501 49 176 0.0 0.0 0.00 0.00 0.00 94 1006.9
20260506034002 49 301 1.0 0.0 0.00 0.00 0.00 94 1006.9
20260506033501 48 314 2.0 0.0 0.00 0.00 0.00 93 1006.9
20260506033002 48 324 3.0 0.0 0.00 0.00 0.00 93 1007.0
20260506032501 48 328 2.0 0.0 0.00 0.00 0.00 92 1007.1
20260506032002 49 320 1.0 0.0 0.00 0.00 0.00 92 1007.1
20260506031502 49 325 2.0 0.0 0.00 0.00 0.00 92 1007.1
20260506031001 49 299 1.0 0.0 0.00 0.00 0.00 92 1007.4
20260506030502 49 330 1.0 0.0 0.00 0.00 0.00 92 1007.4
20260506030002 49 303 1.0 0.0 0.00 0.00 0.00 92 1007.5
20260506025501 48 308 1.0 0.0 0.00 0.00 0.00 91 1007.5
20260506025001 49 331 2.0 0.0 0.00 0.00 0.00 91 1007.6
20260506024502 49 348 1.0 0.0 0.00 0.00 0.00 91 1007.5
20260506024001 49 119 1.0 0.0 0.00 0.00 0.00 90 1007.5
20260506023502 49 0 0.0 0.0 0.00 0.00 0.00 91 1007.5
20260506023002 49 130 0.0 0.0 0.00 0.00 0.00 91 1007.6
20260506022501 49 0 0.0 0.0 0.00 0.00 0.00 89 1007.6
20260506022002 50 285 0.0 0.0 0.00 0.00 0.00 90 1007.6
20260506021503 50 187 1.0 0.0 0.00 0.00 0.00 90 1007.6
20260506021001 50 0 0.0 0.0 0.00 0.00 0.00 89 1007.6
20260506020502 50 183 0.0 0.0 0.00 0.00 0.00 89 1007.6
20260506020002 50 0 0.0 0.0 0.00 0.00 0.00 89 1007.7
20260506015501 50 0 0.0 0.0 0.00 0.00 0.00 90 1007.8
20260506015002 49 0 0.0 0.0 0.00 0.00 0.00 90 1007.8
20260506014503 49 0 0.0 0.0 0.00 0.00 0.00 90 1007.9
20260506014001 49 33 2.0 0.0 0.00 0.00 0.00 89 1007.8
20260506013502 49 35 1.0 0.0 0.00 0.00 0.00 90 1007.9
20260506013002 49 63 1.0 0.0 0.00 0.00 0.00 89 1007.9
20260506012501 49 0 0.0 0.0 0.00 0.00 0.00 88 1007.9
20260506012002 49 282 2.0 0.0 0.00 0.00 0.00 89 1008.0
20260506011502 50 260 1.0 0.0 0.00 0.00 0.00 89 1008.0